星链-34558 (STARLINK-34558)

导读

STARLINK-34558是美国SpaceX星链星座的一颗卫星,于2025年6月28日发射升空。星链项目旨在构建全球卫星互联网星座,为全球不同地区用户提供低成本、高速率的宽带互联网服务。该卫星延续星链标准设计,承担低轨卫星通信服务任务,进一步扩充星链星座的服务覆盖与容量。

Basic Information
目录编号:
64721
目录名称:
STARLINK-34558
国际标识:
2025-142AB
轨道中心:
EARTH
卫星名称:
星链-34558
卫星全名:
星链-34558 (STARLINK-34558)
卫星状态:
在轨 (已飞行350 天)
发射日期:
2025-06-28 UTC
国别 :
美国 (US)
星等 :
--
Orbit Information
数据来源 国际轨道数据 AOE轨道数据
星历时间 2026-06-13T12:14:47+0800
19小时前
查看轨道信息
2026-06-10T01:00:00+0800
4天前
查看轨道信息
半长轴 6950.127km 6950.174km
偏心率 0.0002883 0.0002826
轨道倾角 70.002° 70.001°
近地点辐角 269.212° 270.178°
升交点赤经 73.701° 82.445°
平近点角 90.871° 105.609°
近地点 569.986km 570.072km
远地点 573.994km 574.002km
周期 96.106分钟 96.107分钟
每日圈数 14.983516 14.983364
Detailed Information
固有亮度:
5
最大亮度:
2.5
卫星平台:
Starlink V1.0
覆盖范围:
全球
运营商:
太空探索技术公司
运营商所在国:
美国
制造商(研发单位):
太空探索技术公司
制造商所在国:
美国
使用方式:
暂无
Satellite Introduction
Starlink 计划是 SpaceX 推出的全球卫星互联网项目,通过发射低轨道卫星,为全球尤其是偏远地区提供高速、低延迟的互联网服务。自 2019 年起,Starlink 已部署数千颗卫星,旨在缩小全球数字鸿沟,推动互联网普及。该项目还为军事、航空等行业提供通信支持,带来广泛经济效益。
2D Orbit Map
3D Orbit Map
Orbit Altitude Analysis Chart
Orbit Inclination Analysis Chart
Orbit Comprehensive Analysis Chart
View Comprehensive Chart